TimeCDT,TemperatureF,Dew PointF,Humidity,Sea Level PressureIn,VisibilityMPH,Wind Direction,Wind SpeedMPH,Gust SpeedMPH,PrecipitationIn,Events,Conditions,WindDirDegrees,DateUTC
12:12 AM,39.2,33.3,79,29.74,10.0,NW,10.4,-,N/A,,Overcast,320,2013-04-07 05:12:00
12:33 AM,39.2,33.3,79,29.76,10.0,NW,8.1,-,N/A,,Overcast,310,2013-04-07 05:33:00
12:53 AM,39.2,33.3,79,29.77,10.0,NW,6.9,-,N/A,,Overcast,310,2013-04-07 05:53:00
1:12 AM,38.8,32.9,79,29.77,10.0,NW,9.2,-,N/A,,Overcast,320,2013-04-07 06:12:00
1:32 AM,38.5,32.7,80,29.77,10.0,NNW,5.8,-,N/A,,Overcast,330,2013-04-07 06:32:00
1:52 AM,38.3,32.5,80,29.78,10.0,NNW,8.1,-,N/A,,Overcast,330,2013-04-07 06:52:00
2:13 AM,38.1,32.5,80,29.78,10.0,NNW,9.2,-,N/A,,Overcast,330,2013-04-07 07:13:00
2:32 AM,38.3,32.5,80,29.78,10.0,NW,6.9,-,N/A,,Overcast,310,2013-04-07 07:32:00
2:52 AM,37.9,32.9,82,29.78,10.0,NNW,5.8,-,N/A,,Overcast,330,2013-04-07 07:52:00
3:13 AM,38.3,32.4,79,29.78,10.0,NNW,10.4,17.3,N/A,,Overcast,330,2013-04-07 08:13:00
3:32 AM,38.3,32.0,78,29.78,10.0,NNW,8.1,17.3,N/A,,Overcast,340,2013-04-07 08:32:00
3:52 AM,38.3,32.0,78,29.79,10.0,NNW,8.1,-,N/A,,Overcast,340,2013-04-07 08:52:00
4:13 AM,37.9,32.0,79,29.80,10.0,NW,8.1,-,N/A,,Overcast,320,2013-04-07 09:13:00
4:32 AM,37.8,32.0,80,29.81,10.0,NW,9.2,-,N/A,,Overcast,310,2013-04-07 09:32:00
4:53 AM,37.8,31.6,79,29.82,10.0,NW,8.1,-,N/A,,Overcast,310,2013-04-07 09:53:00
5:12 AM,37.6,31.5,79,29.83,10.0,NNW,6.9,-,N/A,,Overcast,330,2013-04-07 10:12:00
5:32 AM,37.4,31.6,80,29.84,10.0,NW,8.1,-,N/A,,Overcast,310,2013-04-07 10:32:00
5:53 AM,37.0,31.6,81,29.85,10.0,NW,6.9,-,N/A,,Overcast,310,2013-04-07 10:53:00
6:12 AM,37.0,31.5,80,29.85,10.0,NW,6.9,-,N/A,,Overcast,320,2013-04-07 11:12:00
6:32 AM,37.0,31.1,79,29.86,10.0,NW,6.9,-,N/A,,Overcast,320,2013-04-07 11:32:00
6:53 AM,37.2,31.1,79,29.87,10.0,NNW,5.8,-,N/A,,Overcast,330,2013-04-07 11:53:00
7:12 AM,37.4,31.1,78,29.87,10.0,NNW,3.5,-,N/A,,Overcast,330,2013-04-07 12:12:00
7:33 AM,37.4,31.1,78,29.88,10.0,NW,5.8,-,N/A,,Overcast,320,2013-04-07 12:33:00
7:52 AM,37.6,31.5,79,29.88,10.0,Calm,Calm,-,N/A,,Overcast,0,2013-04-07 12:52:00
8:13 AM,37.8,31.1,77,29.89,10.0,North,3.5,-,N/A,,Overcast,360,2013-04-07 13:13:00
8:32 AM,38.3,30.9,75,29.90,10.0,WNW,5.8,-,N/A,,Overcast,300,2013-04-07 13:32:00
8:52 AM,38.3,30.9,75,29.90,10.0,WNW,5.8,-,N/A,,Overcast,300,2013-04-07 13:52:00
9:13 AM,38.3,31.3,76,29.91,10.0,NNW,5.8,-,N/A,,Overcast,330,2013-04-07 14:13:00
9:32 AM,38.3,31.1,75,29.91,10.0,North,4.6,-,N/A,,Overcast,350,2013-04-07 14:32:00
9:52 AM,38.3,30.9,75,29.91,10.0,Calm,Calm,-,N/A,,Overcast,0,2013-04-07 14:52:00
10:12 AM,38.5,31.1,75,29.92,10.0,NW,4.6,-,N/A,,Overcast,310,2013-04-07 15:12:00
10:32 AM,38.5,31.1,75,29.93,10.0,Calm,Calm,-,N/A,,Overcast,0,2013-04-07 15:32:00
10:53 AM,39.2,30.9,72,29.93,10.0,Calm,Calm,-,N/A,,Overcast,0,2013-04-07 15:53:00
11:12 AM,39.7,31.1,71,29.93,10.0,Calm,Calm,-,N/A,,Overcast,0,2013-04-07 16:12:00
11:32 AM,40.1,30.9,70,29.94,10.0,Calm,Calm,-,N/A,,Overcast,0,2013-04-07 16:32:00
11:52 AM,40.6,30.9,68,29.94,10.0,Calm,Calm,-,N/A,,Overcast,0,2013-04-07 16:52:00
12:12 PM,41.0,30.9,67,29.93,10.0,Calm,Calm,-,N/A,,Overcast,0,2013-04-07 17:12:00
12:33 PM,41.9,31.3,66,29.93,10.0,SE,3.5,-,N/A,,Overcast,140,2013-04-07 17:33:00
12:53 PM,42.6,31.3,64,29.92,10.0,East,4.6,-,N/A,,Overcast,80,2013-04-07 17:53:00
1:12 PM,43.3,31.8,64,29.92,10.0,SE,4.6,-,N/A,,Overcast,130,2013-04-07 18:12:00
1:33 PM,42.8,32.0,66,29.91,10.0,SSE,5.8,-,N/A,,Overcast,150,2013-04-07 18:33:00
1:52 PM,43.2,32.0,65,29.91,7.0,SSE,8.1,-,N/A,,Mostly Cloudy,150,2013-04-07 18:52:00
2:13 PM,43.2,32.5,66,29.91,10.0,South,6.9,-,N/A,,Mostly Cloudy,190,2013-04-07 19:13:00
2:32 PM,43.0,32.5,67,29.90,10.0,SSE,5.8,-,N/A,,Overcast,160,2013-04-07 19:32:00
2:52 PM,42.8,32.4,67,29.89,10.0,SSE,6.9,-,N/A,,Overcast,160,2013-04-07 19:52:00
3:13 PM,43.3,32.9,67,29.88,10.0,SSE,6.9,-,N/A,,Overcast,150,2013-04-07 20:13:00
3:32 PM,43.7,33.1,66,29.87,10.0,SSE,6.9,-,N/A,,Mostly Cloudy,160,2013-04-07 20:32:00
3:52 PM,44.6,33.3,64,29.87,10.0,SSE,6.9,-,N/A,,Clear,160,2013-04-07 20:52:00
4:13 PM,45.1,33.8,65,29.86,10.0,SSE,6.9,-,N/A,,Clear,160,2013-04-07 21:13:00
4:32 PM,46.0,34.2,63,29.85,10.0,SE,5.8,-,N/A,,Clear,140,2013-04-07 21:32:00
4:52 PM,46.8,34.7,63,29.85,10.0,SSE,6.9,-,N/A,,Clear,150,2013-04-07 21:52:00
5:12 PM,47.3,34.5,61,29.85,10.0,SSE,10.4,-,N/A,,Clear,150,2013-04-07 22:12:00
5:32 PM,47.3,35.1,62,29.83,10.0,SE,8.1,-,N/A,,Clear,130,2013-04-07 22:32:00
5:53 PM,46.9,35.6,65,29.84,10.0,SSE,5.8,-,N/A,,Clear,160,2013-04-07 22:53:00
6:12 PM,46.9,35.6,65,29.84,10.0,SSE,5.8,-,N/A,,Clear,160,2013-04-07 23:12:00
6:33 PM,47.3,36.0,65,29.84,10.0,SSE,3.5,-,N/A,,Clear,150,2013-04-07 23:33:00
6:53 PM,47.3,35.8,64,29.83,10.0,SE,5.8,-,N/A,,Clear,140,2013-04-07 23:53:00
7:12 PM,46.9,35.8,65,29.83,10.0,SE,5.8,-,N/A,,Clear,130,2013-04-08 00:12:00
7:33 PM,46.6,35.2,65,29.83,10.0,ESE,4.6,-,N/A,,Clear,110,2013-04-08 00:33:00
7:52 PM,46.4,35.4,66,29.82,10.0,ESE,3.5,-,N/A,,Clear,120,2013-04-08 00:52:00
8:12 PM,46.0,35.6,67,29.83,10.0,East,5.8,-,N/A,,Scattered Clouds,90,2013-04-08 01:12:00
8:33 PM,45.0,36.3,72,29.82,10.0,East,3.5,-,N/A,,Light Drizzle,90,2013-04-08 01:33:00
8:52 PM,44.8,35.8,71,29.84,10.0,ESE,4.6,-,N/A,,Overcast,120,2013-04-08 01:52:00
9:13 PM,44.8,35.6,70,29.82,10.0,ESE,3.5,-,N/A,,Mostly Cloudy,120,2013-04-08 02:13:00
9:33 PM,44.6,35.6,71,29.81,10.0,ESE,4.6,-,N/A,,Overcast,110,2013-04-08 02:33:00
9:52 PM,44.6,35.6,71,29.80,10.0,ESE,5.8,-,N/A,,Overcast,110,2013-04-08 02:52:00
10:13 PM,44.2,35.8,72,29.81,10.0,SSE,4.6,-,N/A,,Light Drizzle,150,2013-04-08 03:13:00
10:32 PM,43.2,36.7,78,29.82,7.0,SE,6.9,-,N/A,Rain,Light Rain,140,2013-04-08 03:32:00
10:52 PM,42.3,37.4,83,29.80,7.0,SE,4.6,-,0.01,Rain,Light Rain,130,2013-04-08 03:52:00
11:13 PM,41.9,37.8,85,29.79,5.0,SE,4.6,-,0.01,Rain,Light Rain,130,2013-04-08 04:13:00
11:32 PM,41.5,38.3,88,29.77,5.0,ESE,4.6,-,0.04,Rain,Light Rain,120,2013-04-08 04:32:00
11:53 PM,41.4,38.5,89,29.75,4.0,SE,5.8,-,0.09,Rain,Rain,130,2013-04-08 04:53:00